#timestamp,LO_Frequency,Hit,StdDev 
1698202815.4,286047002.8,N
1698202835.2,286047002.5,N
1698202855.1,286047004.2,Y
1698202856.0,286047004.2,P
1698202875.8,286047001.0,N
1698202895.6,286046998.1,N
1698202915.5,286046998.5,N
1698202935.3,286046998.7,N
1698202955.1,286046999.0,N
1698202975.9,286046998.8,N
1698202995.7,286047000.8,N
1698203015.6,286046998.6,N
1698203035.4,286046998.3,N
1698203055.2,286046999.5,N
1698203075.1,286046998.2,N
1698203076.0,286046998.2,N
1698203095.8,286046998.3,N
1698203115.6,286046999.3,N
1698203135.5,286046996.5,N
1698203155.3,286046996.9,N
1698203175.2,286046996.8,N
1698203195.9,286046998.4,N
1698203215.7,286047001.2,N
1698203235.6,286046998.6,N
1698203255.4,286046998.4,N
1698203275.2,286046998.2,N
1698203295.1,286046998.5,N
1698203296.0,286046998.5,N
1698203315.8,286046998.1,N
1698203335.7,286047000.6,N
1698203355.5,286047000.5,N
1698203375.3,286047001.6,N
1698203395.2,286047001.5,N
1698203415.0,286047004.0,N
1698203415.9,286047004.0,N
1698203435.8,286047001.8,N
1698203455.6,286047001.8,N
1698203475.4,286047004.3,N
1698203495.3,286047004.1,N
1698203515.1,286047003.9,N
1698203535.8,286047004.1,N
1698203555.7,286047005.5,N
1698203575.5,286047005.8,N
1698203595.4,286047005.7,N
1698203615.2,286047003.0,N
1698203635.0,286047004.8,N
1698203635.9,286047004.8,N
1698203655.8,286047006.7,N
1698203675.6,286047007.1,N
1698203695.5,286047007.6,N
1698203715.3,286047005.3,N
1698203735.1,286047004.8,N
1698203755.9,286047005.1,N
1698203775.7,286047004.5,N
1698203795.5,286047004.8,N
1698203815.4,286047009.1,Y
1698203835.2,286047003.1,P
1698203855.1,286047003.1,P
1698203856.0,286047003.1,P
1698203875.8,286047003.1,Y
1698203895.6,286047000.5,P
1698203915.5,286047000.1,N
1698203935.3,286047000.5,N
1698203955.2,286047000.4,N
1698203975.9,286047002.3,N
1698203995.7,286047001.9,N
1698204015.6,286047001.5,N
1698204035.4,286047001.3,N
1698204055.3,286047001.4,N
1698204075.1,286047002.6,N
1698204076.0,286047002.6,N
1698204095.8,286047004.4,Y
1698204115.7,286047001.6,P
1698204135.5,286047004.4,P
1698204155.4,286047003.0,N
1698204175.2,286047006.0,Y
1698204195.0,286047002.2,P
1698204195.9,286047002.2,P
1698204215.8,286046999.7,N
1698204235.6,286047002.8,N
1698204255.4,286047000.2,N
1698204275.3,286047000.4,N
1698204295.1,286047002.7,N
1698204315.9,286047002.2,N
1698204335.7,286047002.3,N
1698204355.5,286047002.8,N
1698204375.4,286047002.4,N
1698204395.2,286047001.8,N
1698204415.1,286047001.4,N
1698204416.0,286047001.4,N
1698204435.8,286047002.3,N
1698204455.6,286047002.5,N
1698204475.5,286047002.6,N
1698204495.3,286047000.4,N
1698204515.2,286047002.7,N
1698204535.0,286047000.5,N
1698204535.9,286047000.5,N
1698204555.7,286047002.3,N
1698204575.6,286047001.8,N
1698204595.4,286047001.4,N
1698204615.3,286047001.5,N
1698204635.1,286047000.3,N
1698204655.8,286047000.5,N
1698204675.7,286047001.0,N
1698204695.5,286047000.0,N
1698204715.3,286047002.1,N
1698204735.2,286047001.5,N
1698204755.0,286047003.9,Y
1698204755.9,286047003.9,P
1698204775.8,286047001.6,N
1698204795.6,286047000.2,N
1698204815.5,286047000.2,N
1698204835.3,286047000.4,N
1698204855.1,286046999.7,N
1698204875.9,286047002.5,N
1698204895.7,286047000.2,N
1698204915.5,286047002.7,N
1698204935.4,286047002.0,N
1698204955.2,286047001.4,N
1698204975.1,286047001.5,N
1698204976.0,286047001.5,N
1698204995.8,286047002.0,N
1698205015.6,286047001.7,N
1698205035.5,286047004.4,Y
1698205055.3,286047002.2,P
1698205075.1,286047001.5,P
1698205095.9,286047002.2,P
1698205115.7,286047000.0,N
1698205135.8,286047002.4,N
1698205155.7,286047002.3,N
1698205175.5,286046999.8,N
1698205195.3,286047002.2,N
1698205215.2,286047002.0,N
1698205235.0,286047002.4,N
1698205235.9,286047002.4,N
1698205255.8,286046999.8,N
1698205275.6,286047000.8,N
1698205295.4,286047000.7,N
1698205315.3,286047000.0,N
1698205335.1,286046999.7,N
1698205355.8,286046999.7,N
1698205375.7,286046999.8,N
1698205395.5,286047000.4,N
1698205415.4,286047000.9,N
1698205435.2,286046998.1,N
1698205455.0,286046998.5,N
1698205455.9,286046998.5,N
1698205475.8,286047000.0,N
1698205495.6,286046998.4,N
1698205515.4,286046998.4,N
1698205535.3,286047000.2,N
1698205555.1,286047000.1,N
1698205575.9,286046999.8,N
1698205595.7,286046999.7,N
1698205615.5,286047000.9,N
1698205635.4,286047000.6,N
1698205655.2,286046998.1,N
1698205675.0,286047000.6,N
1698205675.9,286047000.6,N
1698205695.8,286047000.0,N
1698205715.6,286046999.9,N
1698205735.5,286046999.9,N
1698205755.3,286047000.6,N
1698205775.1,286047000.1,N
1698205795.9,286047000.6,N
1698205815.7,286046999.9,N
1698205835.5,286046999.7,N
1698205855.4,286047002.4,N
1698205875.2,286047002.3,N
1698205895.1,286047002.8,N
1698205896.0,286047002.8,N
1698205915.8,286047000.0,N
1698205935.6,286047000.7,N
1698205955.5,286046998.2,N
1698205975.3,286047000.9,N
1698205995.2,286047000.5,N
1698206015.9,286047000.1,N
1698206035.7,286047000.1,N
1698206055.6,286047000.0,N
1698206075.4,286047002.5,N
1698206095.2,286047002.5,N
1698206115.1,286046999.7,N
1698206116.0,286046999.7,N
1698206135.8,286047004.3,Y
1698206155.7,286047000.1,P
1698206175.5,286047000.4,N
1698206195.3,286047000.9,P
1698206215.2,286047000.5,N
1698206235.0,286047000.0,N
1698206235.9,286047000.0,N
1698206255.7,286047000.2,N
1698206275.6,286046999.7,N
1698206295.4,286046999.7,N
1698206315.3,286047000.1,N
1698206335.1,286047002.7,Y
1698206355.8,286047000.4,P
1698206375.7,286047000.4,P
1698206395.5,286047001.1,P
